| time (UTC) | temp F | wind direction | speed MPH | gust MPH | rain 1hr in | rain 24hr in | rain mn in | humidity % | barometer mb |
| 20260508050018 | 42 | 270 | 5.0 | 12.0 | 0.00 | 0.00 | 0.00 | 95 | 1029.2 |
| 20260508043059 | 42 | 270 | 3.0 | 9.0 | 0.00 | 0.00 | 0.00 | 94 | 1029.3 |
| 20260508040017 | 42 | 270 | 3.0 | 10.0 | 0.00 | 0.00 | 0.00 | 94 | 1029.2 |
| 20260508033017 | 42 | 270 | 3.0 | 7.0 | 0.00 | 0.00 | 0.00 | 94 | 1029.0 |
| 20260508030017 | 41 | 270 | 2.0 | 8.0 | 0.00 | 0.00 | 0.00 | 94 | 1029.3 |
| 20260508023017 | 41 | 270 | 3.0 | 9.0 | 0.00 | 0.00 | 0.00 | 94 | 1029.5 |
| 20260508020017 | 41 | 270 | 3.0 | 9.0 | 0.00 | 0.00 | 0.00 | 94 | 1029.9 |
| 20260508013018 | 41 | 270 | 3.0 | 10.0 | 0.00 | 0.00 | 0.00 | 94 | 1030.0 |
| 20260508010016 | 41 | 270 | 2.0 | 11.0 | 0.00 | 0.00 | 0.00 | 94 | 1029.9 |
| 20260508003017 | 40 | 270 | 3.0 | 13.0 | 0.00 | 0.00 | 0.00 | 94 | 1029.9 |
| 20260508000018 | 40 | 270 | 4.0 | 11.0 | 0.00 | 0.00 | 0.00 | 93 | 1029.7 |
| 20260507233018 | 40 | 270 | 3.0 | 11.0 | 0.00 | 0.00 | 0.00 | 93 | 1029.7 |
| 20260507230019 | 39 | 270 | 4.0 | 11.0 | 0.00 | 0.00 | 0.00 | 93 | 1029.7 |
| 20260507223017 | 39 | 270 | 3.0 | 13.0 | 0.00 | 0.01 | 0.00 | 93 | 1029.5 |
| 20260507220018 | 38 | 270 | 3.0 | 15.0 | 0.00 | 0.01 | 0.00 | 92 | 1028.7 |
| 20260507213019 | 38 | 248 | 4.0 | 12.0 | 0.00 | 0.02 | 0.00 | 90 | 1028.8 |
| 20260507210018 | 38 | 270 | 3.0 | 13.0 | 0.00 | 0.02 | 0.00 | 90 | 1028.4 |
| 20260507203038 | 37 | 270 | 4.0 | 11.0 | 0.00 | 0.03 | 0.00 | 89 | 1027.9 |
| 20260507200019 | 37 | 270 | 4.0 | 11.0 | 0.00 | 0.03 | 0.00 | 89 | 1028.1 |
| 20260507193039 | 37 | 270 | 4.0 | 15.0 | 0.00 | 0.03 | 0.00 | 88 | 1028.3 |
| 20260507190018 | 37 | 270 | 3.0 | 15.0 | 0.00 | 0.03 | 0.00 | 89 | 1028.2 |
| 20260507183018 | 37 | 270 | 4.0 | 12.0 | 0.00 | 0.03 | 0.00 | 90 | 1028.1 |
| 20260507180018 | 37 | 270 | 4.0 | 26.0 | 0.00 | 0.03 | 0.00 | 91 | 1028.0 |
| 20260507173018 | 36 | 270 | 3.0 | 11.0 | 0.00 | 0.03 | 0.00 | 92 | 1028.0 |
| 20260507170017 | 36 | 270 | 3.0 | 9.0 | 0.00 | 0.03 | 0.00 | 92 | 1028.2 |
| 20260507163018 | 36 | 270 | 3.0 | 12.0 | 0.00 | 0.03 | 0.00 | 92 | 1027.9 |
| 20260507160017 | 35 | 270 | 3.0 | 14.0 | 0.00 | 0.03 | 0.00 | 91 | 1028.1 |
| 20260507153018 | 35 | 270 | 3.0 | 13.0 | 0.00 | 0.03 | 0.00 | 90 | 1028.1 |
| 20260507150018 | 35 | 270 | 3.0 | 11.0 | 0.00 | 0.03 | 0.00 | 90 | 1028.4 |
| 20260507143018 | 35 | 270 | 3.0 | 13.0 | 0.00 | 0.03 | 0.00 | 89 | 1028.2 |
| 20260507140057 | 35 | 270 | 3.0 | 15.0 | 0.00 | 0.03 | 0.03 | 88 | 1028.7 |
| 20260507133019 | 35 | 158 | 3.0 | 13.0 | 0.00 | 0.03 | 0.03 | 87 | 1028.4 |
| 20260507130040 | 34 | 270 | 3.0 | 9.0 | 0.00 | 0.03 | 0.03 | 87 | 1028.0 |
| 20260507123018 | 34 | 270 | 2.0 | 9.0 | 0.00 | 0.03 | 0.03 | 87 | 1028.0 |
| 20260507120018 | 34 | 270 | 3.0 | 12.0 | 0.00 | 0.03 | 0.03 | 87 | 1028.0 |
| 20260507113019 | 35 | 270 | 4.0 | 11.0 | 0.00 | 0.03 | 0.03 | 86 | 1027.8 |
| 20260507110020 | 35 | 248 | 2.0 | 11.0 | 0.00 | 0.03 | 0.03 | 85 | 1027.4 |
| 20260507103023 | 35 | 270 | 4.0 | 11.0 | 0.00 | 0.03 | 0.03 | 85 | 1027.6 |
| 20260507100038 | 35 | 270 | 4.0 | 14.0 | 0.00 | 0.03 | 0.03 | 85 | 1027.9 |
| 20260507093018 | 36 | 270 | 2.0 | 10.0 | 0.00 | 0.03 | 0.03 | 84 | 1028.0 |
| 20260507090057 | 36 | 270 | 3.0 | 9.0 | 0.00 | 0.03 | 0.03 | 83 | 1027.6 |
| 20260507083018 | 36 | 270 | 3.0 | 12.0 | 0.00 | 0.03 | 0.03 | 80 | 1027.6 |
| 20260507080017 | 37 | 270 | 4.0 | 11.0 | 0.00 | 0.03 | 0.03 | 78 | 1027.0 |
| 20260507073017 | 38 | 270 | 3.0 | 10.0 | 0.00 | 0.03 | 0.03 | 78 | 1026.9 |
| 20260507070017 | 38 | 270 | 4.0 | 14.0 | 0.00 | 0.03 | 0.03 | 75 | 1026.2 |
| 20260507063024 | 40 | 270 | 5.0 | 15.0 | 0.00 | 0.03 | 0.03 | 74 | 1026.0 |
| 20260507053018 | 41 | 270 | 6.0 | 13.0 | 0.00 | 0.03 | 0.03 | 70 | 1025.7 |